Time,TemperatureF,DewpointF,PressureIn,WindDirection,WindDirectionDegrees,WindSpeedMPH,WindSpeedGustMPH,Humidity,HourlyPrecipIn,Conditions,Clouds,dailyrainin,SoftwareType,DateUTC
2013-12-08 00:00:00,18.5,16.6,29.89,SSE,166,0.0,0.0,92,0.00,,SKC,0.00,VWS V14.00,2013-12-08 07:00:00,
2013-12-08 00:04:00,18.5,16.6,29.89,SSE,166,0.0,0.0,92,0.00,,SKC,0.00,VWS V14.00,2013-12-08 07:04:00,
2013-12-08 00:09:00,18.5,16.6,29.88,SSE,166,0.0,0.0,92,0.00,,SKC,0.00,VWS V14.00,2013-12-08 07:09:00,
2013-12-08 00:14:00,18.5,16.6,29.88,SSE,166,0.0,0.0,92,0.00,,SKC,0.00,VWS V14.00,2013-12-08 07:14:00,
2013-12-08 00:19:00,18.6,16.7,29.87,SSE,166,0.0,0.0,92,0.00,,SKC,0.00,VWS V14.00,2013-12-08 07:19:00,
2013-12-08 00:25:00,18.8,16.9,29.87,SSE,166,0.0,0.0,92,0.00,,SKC,0.00,VWS V14.00,2013-12-08 07:25:00,
2013-12-08 00:30:00,18.8,16.9,29.86,SSE,166,0.0,0.0,92,0.00,,SKC,0.00,VWS V14.00,2013-12-08 07:30:00,
2013-12-08 00:35:00,18.9,17.0,29.85,SSE,166,0.0,0.0,92,0.00,,SKC,0.00,VWS V14.00,2013-12-08 07:35:00,
2013-12-08 00:40:00,19.0,17.3,29.86,SSE,166,0.0,0.0,93,0.00,,SKC,0.00,VWS V14.00,2013-12-08 07:40:00,
2013-12-08 00:45:00,19.1,17.4,29.85,SSE,166,0.0,0.0,93,0.00,,SKC,0.00,VWS V14.00,2013-12-08 07:45:00,
2013-12-08 00:51:00,19.2,17.3,29.85,SSE,166,0.0,0.0,92,0.00,,SKC,0.00,VWS V14.00,2013-12-08 07:51:00,
2013-12-08 00:56:00,19.1,17.2,29.85,SSE,166,0.0,0.0,92,0.00,,SKC,0.00,VWS V14.00,2013-12-08 07:56:00,
2013-12-08 01:00:00,19.0,17.1,29.84,SSE,166,0.0,1.0,92,0.00,,SKC,0.00,VWS V14.00,2013-12-08 08:00:00,
2013-12-08 01:01:00,19.0,17.1,29.84,SSE,166,0.0,1.0,92,0.00,,SKC,0.00,VWS V14.00,2013-12-08 08:01:00,
2013-12-08 01:06:00,19.0,17.1,29.84,SSE,166,0.0,0.0,92,0.00,,SKC,0.00,VWS V14.00,2013-12-08 08:06:00,
2013-12-08 01:12:00,19.0,17.1,29.84,SSE,166,0.0,0.0,92,0.00,,SKC,0.00,VWS V14.00,2013-12-08 08:12:00,
2013-12-08 01:17:00,19.0,17.1,29.84,SSE,166,0.0,0.0,92,0.00,,SKC,0.00,VWS V14.00,2013-12-08 08:17:00,
2013-12-08 01:22:00,19.1,17.2,29.84,SSE,166,0.0,0.0,92,0.00,,SKC,0.00,VWS V14.00,2013-12-08 08:22:00,
2013-12-08 01:27:00,19.1,17.2,29.83,SSE,166,0.0,0.0,92,0.00,,SKC,0.00,VWS V14.00,2013-12-08 08:27:00,
2013-12-08 01:30:00,19.1,17.2,29.83,SSE,166,0.0,0.0,92,0.00,,SKC,0.00,VWS V14.00,2013-12-08 08:30:00,
2013-12-08 01:32:00,19.1,17.2,29.84,SSE,166,0.0,0.0,92,0.00,,SKC,0.00,VWS V14.00,2013-12-08 08:32:00,
2013-12-08 01:38:00,19.1,17.2,29.84,SSE,166,0.0,0.0,92,0.00,,SKC,0.00,VWS V14.00,2013-12-08 08:38:00,
2013-12-08 01:43:00,19.1,17.2,29.84,SSE,166,0.0,0.0,92,0.00,,SKC,0.00,VWS V14.00,2013-12-08 08:43:00,
2013-12-08 01:48:00,19.1,17.2,29.84,SSE,166,0.0,0.0,92,0.00,,SKC,0.00,VWS V14.00,2013-12-08 08:48:00,
2013-12-08 01:53:00,19.2,17.3,29.84,SSE,166,0.0,0.0,92,0.00,,SKC,0.00,VWS V14.00,2013-12-08 08:53:00,
2013-12-08 01:59:00,19.2,17.3,29.84,SSE,166,0.0,0.0,92,0.00,,SKC,0.00,VWS V14.00,2013-12-08 08:59:00,
2013-12-08 02:00:00,19.2,17.3,29.84,SSE,166,0.0,0.0,92,0.00,,SKC,0.00,VWS V14.00,2013-12-08 09:00:00,
2013-12-08 02:04:00,19.1,17.2,29.84,SSE,166,0.0,0.0,92,0.00,,SKC,0.00,VWS V14.00,2013-12-08 09:04:00,
2013-12-08 02:09:00,19.1,17.2,29.84,SSE,166,0.0,0.0,92,0.00,,SKC,0.00,VWS V14.00,2013-12-08 09:09:00,
2013-12-08 02:14:00,19.1,17.2,29.84,SSE,166,0.0,0.0,92,0.00,,SKC,0.00,VWS V14.00,2013-12-08 09:14:00,
2013-12-08 02:20:00,19.1,17.2,29.85,SSE,166,0.0,0.0,92,0.00,,SKC,0.00,VWS V14.00,2013-12-08 09:20:00,
2013-12-08 02:25:00,19.1,17.2,29.84,SSE,166,0.0,0.0,92,0.00,,SKC,0.00,VWS V14.00,2013-12-08 09:25:00,
2013-12-08 02:30:00,19.2,17.3,29.85,SSE,166,0.0,0.0,92,0.00,,SKC,0.00,VWS V14.00,2013-12-08 09:30:00,
2013-12-08 02:35:00,19.2,17.3,29.85,SSE,166,0.0,0.0,92,0.00,,SKC,0.00,VWS V14.00,2013-12-08 09:35:00,
2013-12-08 02:41:00,19.2,17.3,29.86,SSE,166,0.0,0.0,92,0.00,,SKC,0.00,VWS V14.00,2013-12-08 09:41:00,
2013-12-08 02:46:00,19.2,17.3,29.86,SSE,166,0.0,0.0,92,0.00,,SKC,0.00,VWS V14.00,2013-12-08 09:46:00,
2013-12-08 02:51:00,19.3,17.4,29.87,SSE,166,0.0,0.0,92,0.00,,SKC,0.00,VWS V14.00,2013-12-08 09:51:00,
2013-12-08 02:56:00,19.3,17.4,29.87,SSE,166,0.0,0.0,92,0.00,,SKC,0.00,VWS V14.00,2013-12-08 09:56:00,
2013-12-08 03:00:00,19.4,17.7,29.87,SSE,166,0.0,0.0,93,0.00,,SKC,0.00,VWS V14.00,2013-12-08 10:00:00,
2013-12-08 03:02:00,19.4,17.7,29.87,SSE,166,0.0,0.0,93,0.00,,SKC,0.00,VWS V14.00,2013-12-08 10:02:00,
2013-12-08 03:07:00,19.6,17.9,29.87,SSE,166,0.0,0.0,93,0.00,,SKC,0.00,VWS V14.00,2013-12-08 10:07:00,
2013-12-08 03:12:00,19.7,18.0,29.87,SSE,166,0.0,0.0,93,0.00,,SKC,0.00,VWS V14.00,2013-12-08 10:12:00,
2013-12-08 03:20:00,19.8,18.1,29.88,SSE,166,0.0,0.0,93,0.00,,SKC,0.00,VWS V14.00,2013-12-08 10:20:00,
2013-12-08 03:25:00,20.2,18.5,29.88,SSE,154,2.0,5.0,93,0.00,,SKC,0.00,VWS V14.00,2013-12-08 10:25:00,
2013-12-08 03:30:00,20.8,18.6,29.88,SSE,165,4.0,6.0,91,0.00,,SKC,0.00,VWS V14.00,2013-12-08 10:30:00,
2013-12-08 03:35:00,21.1,18.4,29.88,SSE,150,2.0,8.0,89,0.00,,SKC,0.00,VWS V14.00,2013-12-08 10:35:00,
2013-12-08 03:41:00,21.4,18.4,29.88,South,183,6.0,8.0,88,0.00,,SKC,0.00,VWS V14.00,2013-12-08 10:41:00,
2013-12-08 03:46:00,21.5,18.2,29.88,South,180,5.0,8.0,87,0.00,,SKC,0.00,VWS V14.00,2013-12-08 10:46:00,
2013-12-08 03:51:00,21.6,18.3,29.88,South,181,3.0,10.0,87,0.00,,SKC,0.00,VWS V14.00,2013-12-08 10:51:00,
2013-12-08 03:56:00,21.6,18.1,29.88,SSE,165,5.0,10.0,86,0.00,,SKC,0.00,VWS V14.00,2013-12-08 10:56:00,
2013-12-08 04:01:00,21.6,18.3,29.88,South,177,4.0,10.0,87,0.00,,SKC,0.00,VWS V14.00,2013-12-08 11:01:00,
2013-12-08 04:07:00,21.5,18.0,29.88,SSE,165,6.0,13.0,86,0.00,,SKC,0.00,VWS V14.00,2013-12-08 11:07:00,
2013-12-08 04:12:00,21.6,18.1,29.88,SE,145,0.0,13.0,86,0.00,,SKC,0.00,VWS V14.00,2013-12-08 11:12:00,
2013-12-08 04:17:00,21.5,18.0,29.88,SSE,157,4.0,13.0,86,0.00,,SKC,0.00,VWS V14.00,2013-12-08 11:17:00,
2013-12-08 04:22:00,21.5,17.7,29.88,SSE,155,0.0,13.0,85,0.00,,SKC,0.00,VWS V14.00,2013-12-08 11:22:00,
2013-12-08 04:27:00,21.5,17.7,29.87,SE,141,1.0,13.0,85,0.00,,SKC,0.00,VWS V14.00,2013-12-08 11:27:00,
2013-12-08 04:33:00,21.5,17.7,29.87,SE,145,1.0,1.0,85,0.00,,SKC,0.00,VWS V14.00,2013-12-08 11:33:00,
2013-12-08 04:38:00,21.5,17.7,29.88,ESE,117,0.0,4.0,85,0.00,,SKC,0.00,VWS V14.00,2013-12-08 11:38:00,
2013-12-08 04:43:00,21.5,18.0,29.88,ESE,119,0.0,4.0,86,0.00,,SKC,0.00,VWS V14.00,2013-12-08 11:43:00,
2013-12-08 04:48:00,21.4,17.6,29.88,ESE,119,0.0,4.0,85,0.00,,SKC,0.00,VWS V14.00,2013-12-08 11:48:00,
2013-12-08 04:54:00,21.3,17.5,29.88,NW,304,1.0,6.0,85,0.00,,SKC,0.00,VWS V14.00,2013-12-08 11:54:00,
2013-12-08 04:59:00,21.2,16.9,29.88,SW,230,0.0,6.0,83,0.00,,SKC,0.00,VWS V14.00,2013-12-08 11:59:00,
2013-12-08 05:04:00,21.1,16.8,29.88,West,275,1.0,5.0,83,0.00,,SKC,0.00,VWS V14.00,2013-12-08 12:04:00,
2013-12-08 05:09:00,20.9,16.8,29.88,South,180,4.0,8.0,84,0.00,,SKC,0.00,VWS V14.00,2013-12-08 12:09:00,
2013-12-08 05:14:00,20.5,16.4,29.89,SSW,204,3.0,9.0,84,0.00,,SKC,0.00,VWS V14.00,2013-12-08 12:14:00,
2013-12-08 05:20:00,20.1,16.3,29.89,South,188,3.0,9.0,85,0.00,,SKC,0.00,VWS V14.00,2013-12-08 12:20:00,
2013-12-08 05:25:00,19.6,16.4,29.89,SSW,193,4.0,9.0,87,0.00,,SKC,0.00,VWS V14.00,2013-12-08 12:25:00,
2013-12-08 05:30:00,19.2,16.0,29.89,South,188,3.0,9.0,87,0.00,,SKC,0.00,VWS V14.00,2013-12-08 12:30:00,
2013-12-08 05:35:00,19.0,16.0,29.90,South,178,4.0,6.0,88,0.00,,SKC,0.00,VWS V14.00,2013-12-08 12:35:00,
2013-12-08 05:40:00,18.8,15.8,29.90,SSW,206,0.0,8.0,88,0.00,,SKC,0.00,VWS V14.00,2013-12-08 12:40:00,
2013-12-08 05:46:00,18.7,16.0,29.91,SSW,198,0.0,8.0,89,0.00,,SKC,0.00,VWS V14.00,2013-12-08 12:46:00,
2013-12-08 05:51:00,18.6,15.9,29.91,SSE,158,2.0,8.0,89,0.00,,SKC,0.00,VWS V14.00,2013-12-08 12:51:00,
2013-12-08 05:56:00,18.5,15.8,29.91,SSE,167,1.0,8.0,89,0.00,,SKC,0.00,VWS V14.00,2013-12-08 12:56:00,
2013-12-08 06:01:00,18.4,15.7,29.92,SSE,167,0.0,8.0,89,0.00,,SKC,0.00,VWS V14.00,2013-12-08 13:01:00,
2013-12-08 06:07:00,18.4,15.7,29.92,SE,135,1.0,5.0,89,0.00,,SKC,0.00,VWS V14.00,2013-12-08 13:07:00,
2013-12-08 06:12:00,18.4,15.4,29.93,SSE,157,1.0,5.0,88,0.00,,SKC,0.00,VWS V14.00,2013-12-08 13:12:00,
2013-12-08 06:17:00,18.4,15.2,29.93,SSW,192,0.0,8.0,87,0.00,,SKC,0.00,VWS V14.00,2013-12-08 13:17:00,
2013-12-08 06:22:00,18.3,14.8,29.94,SSE,161,0.0,8.0,86,0.00,,SKC,0.00,VWS V14.00,2013-12-08 13:22:00,
2013-12-08 06:27:00,18.3,14.8,29.94,SE,130,0.0,8.0,86,0.00,,SKC,0.00,VWS V14.00,2013-12-08 13:27:00,
2013-12-08 06:32:00,18.2,14.7,29.93,SE,130,0.0,1.0,86,0.00,,SKC,0.00,VWS V14.00,2013-12-08 13:32:00,
2013-12-08 06:38:00,18.1,13.5,29.94,WSW,246,0.0,5.0,82,0.00,,SKC,0.00,VWS V14.00,2013-12-08 13:38:00,
2013-12-08 06:43:00,18.0,13.7,29.94,WSW,246,0.0,5.0,83,0.00,,SKC,0.00,VWS V14.00,2013-12-08 13:43:00,
2013-12-08 06:48:00,17.9,12.8,29.95,WSW,242,0.0,5.0,80,0.00,,SKC,0.00,VWS V14.00,2013-12-08 13:48:00,
2013-12-08 06:53:00,17.9,13.1,29.95,WSW,242,0.0,5.0,81,0.00,,SKC,0.00,VWS V14.00,2013-12-08 13:53:00,
2013-12-08 06:58:00,17.8,13.0,29.96,WSW,242,0.0,5.0,81,0.00,,SKC,0.00,VWS V14.00,2013-12-08 13:58:00,
2013-12-08 07:04:00,17.7,12.6,29.96,SSE,155,0.0,1.0,80,0.00,,SKC,0.00,VWS V14.00,2013-12-08 14:04:00,
2013-12-08 07:09:00,17.6,12.5,29.97,SSE,155,0.0,1.0,80,0.00,,SKC,0.00,VWS V14.00,2013-12-08 14:09:00,
2013-12-08 07:14:00,17.5,13.2,29.97,SSE,155,0.0,1.0,83,0.00,,SKC,0.00,VWS V14.00,2013-12-08 14:14:00,
2013-12-08 07:20:00,17.2,12.9,29.97,SSE,155,0.0,2.0,83,0.00,,SKC,0.00,VWS V14.00,2013-12-08 14:20:00,
2013-12-08 07:25:00,17.1,12.6,29.97,SSE,155,0.0,2.0,82,0.00,,SKC,0.00,VWS V14.00,2013-12-08 14:25:00,
2013-12-08 07:30:00,17.0,13.0,29.98,SSE,155,0.0,2.0,84,0.00,,SKC,0.00,VWS V14.00,2013-12-08 14:30:00,
2013-12-08 07:35:00,16.8,12.8,29.98,SSE,155,0.0,0.0,84,0.00,,SKC,0.00,VWS V14.00,2013-12-08 14:35:00,
2013-12-08 07:40:00,16.7,12.7,29.99,SE,146,1.0,1.0,84,0.00,,SKC,0.00,VWS V14.00,2013-12-08 14:40:00,
2013-12-08 07:46:00,16.6,12.4,29.99,SE,146,0.0,2.0,83,0.00,,SKC,0.00,VWS V14.00,2013-12-08 14:46:00,
2013-12-08 07:51:00,16.5,12.5,29.99,SE,146,0.0,2.0,84,0.00,,SKC,0.00,VWS V14.00,2013-12-08 14:51:00,
2013-12-08 07:56:00,16.3,12.3,30.00,SE,146,1.0,4.0,84,0.00,,SKC,0.00,VWS V14.00,2013-12-08 14:56:00,
2013-12-08 08:01:00,16.1,12.1,30.00,SE,146,0.0,4.0,84,0.00,,SKC,0.00,VWS V14.00,2013-12-08 15:01:00,
2013-12-08 08:06:00,16.0,11.5,30.01,ESE,117,2.0,6.0,82,0.00,,SKC,0.00,VWS V14.00,2013-12-08 15:06:00,
2013-12-08 08:12:00,16.0,11.5,30.02,South,184,2.0,6.0,82,0.00,,SKC,0.00,VWS V14.00,2013-12-08 15:12:00,
2013-12-08 08:17:00,16.1,11.0,30.02,SSE,168,0.0,6.0,80,0.00,,SKC,0.00,VWS V14.00,2013-12-08 15:17:00,
2013-12-08 08:22:00,16.1,11.0,30.03,SSE,168,0.0,6.0,80,0.00,,SKC,0.00,VWS V14.00,2013-12-08 15:22:00,
2013-12-08 08:27:00,16.2,11.4,30.04,SSE,168,0.0,6.0,81,0.00,,SKC,0.00,VWS V14.00,2013-12-08 15:27:00,
2013-12-08 08:33:00,16.3,11.5,30.04,SSE,168,0.0,0.0,81,0.00,,SKC,0.00,VWS V14.00,2013-12-08 15:33:00,
2013-12-08 08:38:00,16.4,10.8,30.05,SSE,168,0.0,0.0,78,0.00,,SKC,0.00,VWS V14.00,2013-12-08 15:38:00,
2013-12-08 08:43:00,16.6,11.2,30.05,SSE,168,0.0,1.0,79,0.00,,SKC,0.00,VWS V14.00,2013-12-08 15:43:00,
2013-12-08 08:48:00,16.7,11.6,30.06,SSE,168,1.0,1.0,80,0.00,,SKC,0.00,VWS V14.00,2013-12-08 15:48:00,
2013-12-08 08:54:00,16.7,9.9,30.06,WNW,296,0.0,5.0,74,0.00,,SKC,0.00,VWS V14.00,2013-12-08 15:54:00,
2013-12-08 08:59:00,16.8,8.7,30.07,WSW,248,0.0,5.0,70,0.00,,SKC,0.00,VWS V14.00,2013-12-08 15:59:00,
2013-12-08 09:04:00,16.8,8.4,30.07,West,261,0.0,3.0,69,0.00,,SKC,0.00,VWS V14.00,2013-12-08 16:04:00,
2013-12-08 09:09:00,16.9,8.2,30.08,South,183,0.0,5.0,68,0.00,,SKC,0.00,VWS V14.00,2013-12-08 16:09:00,
2013-12-08 09:14:00,17.0,7.6,30.08,South,186,0.0,5.0,66,0.00,,SKC,0.00,VWS V14.00,2013-12-08 16:14:00,
2013-12-08 09:20:00,17.0,7.6,30.08,West,263,0.0,5.0,66,0.00,,SKC,0.00,VWS V14.00,2013-12-08 16:20:00,
2013-12-08 09:25:00,17.1,7.4,30.08,West,264,2.0,5.0,65,0.00,,SKC,0.00,VWS V14.00,2013-12-08 16:25:00,
2013-12-08 09:30:00,17.1,8.1,30.09,WSW,248,0.0,5.0,67,0.00,,SKC,0.00,VWS V14.00,2013-12-08 16:30:00,
2013-12-08 09:35:00,17.1,8.1,30.09,SW,231,3.0,3.0,67,0.00,,SKC,0.00,VWS V14.00,2013-12-08 16:35:00,
2013-12-08 09:41:00,17.0,7.9,30.10,SSW,203,1.0,4.0,67,0.00,,SKC,0.00,VWS V14.00,2013-12-08 16:41:00,
2013-12-08 09:46:00,17.0,8.3,30.11,SW,218,2.0,4.0,68,0.00,,SKC,0.00,VWS V14.00,2013-12-08 16:46:00,
2013-12-08 09:51:00,17.0,8.6,30.11,SW,221,3.0,6.0,69,0.00,,SKC,0.00,VWS V14.00,2013-12-08 16:51:00,
2013-12-08 09:56:00,16.9,9.1,30.11,SSW,207,2.0,6.0,71,0.00,,SKC,0.00,VWS V14.00,2013-12-08 16:56:00,
2013-12-08 10:02:00,16.7,8.9,30.12,SSW,197,0.0,6.0,71,0.00,,SKC,0.00,VWS V14.00,2013-12-08 17:02:00,
2013-12-08 10:07:00,16.8,9.4,30.12,SSW,208,2.0,5.0,72,0.00,,SKC,0.00,VWS V14.00,2013-12-08 17:07:00,
2013-12-08 10:12:00,16.8,9.0,30.12,SSW,210,2.0,5.0,71,0.00,,SKC,0.00,VWS V14.00,2013-12-08 17:12:00,
2013-12-08 10:17:00,17.0,9.2,30.12,SSW,204,1.0,6.0,71,0.00,,SKC,0.00,VWS V14.00,2013-12-08 17:17:00,
2013-12-08 10:23:00,17.2,9.1,30.12,West,262,1.0,6.0,70,0.00,,SKC,0.00,VWS V14.00,2013-12-08 17:23:00,
2013-12-08 10:28:00,17.5,9.4,30.12,SW,225,3.0,6.0,70,0.00,,SKC,0.00,VWS V14.00,2013-12-08 17:28:00,
2013-12-08 10:33:00,17.5,9.4,30.13,West,263,2.0,4.0,70,0.00,,SKC,0.00,VWS V14.00,2013-12-08 17:33:00,
2013-12-08 10:38:00,17.6,9.5,30.12,SW,219,2.0,4.0,70,0.00,,SKC,0.00,VWS V14.00,2013-12-08 17:38:00,
2013-12-08 10:43:00,17.7,9.9,30.12,SW,225,1.0,4.0,71,0.00,,SKC,0.00,VWS V14.00,2013-12-08 17:43:00,
2013-12-08 10:49:00,17.8,9.7,30.13,SW,234,2.0,5.0,70,0.00,,SKC,0.00,VWS V14.00,2013-12-08 17:49:00,
2013-12-08 10:54:00,17.9,9.5,30.12,SW,221,2.0,5.0,69,0.00,,SKC,0.00,VWS V14.00,2013-12-08 17:54:00,
2013-12-08 10:59:00,18.1,9.7,30.12,SSW,204,2.0,5.0,69,0.00,,SKC,0.00,VWS V14.00,2013-12-08 17:59:00,
2013-12-08 11:04:00,18.4,9.6,30.12,South,184,2.0,5.0,68,0.00,,SKC,0.00,VWS V14.00,2013-12-08 18:04:00,
2013-12-08 11:10:00,18.5,9.7,30.12,SSW,200,0.0,6.0,68,0.00,,SKC,0.00,VWS V14.00,2013-12-08 18:10:00,
2013-12-08 11:16:00,18.6,9.8,30.11,SSE,162,2.0,8.0,68,0.00,,SKC,0.00,VWS V14.00,2013-12-08 18:16:00,
2013-12-08 11:21:00,18.6,10.1,30.11,SSW,194,0.0,8.0,69,0.00,,SKC,0.00,VWS V14.00,2013-12-08 18:21:00,
2013-12-08 11:26:00,18.6,10.1,30.11,SSE,153,6.0,9.0,69,0.00,,SKC,0.00,VWS V14.00,2013-12-08 18:26:00,
2013-12-08 11:31:00,18.5,10.4,30.12,South,169,1.0,9.0,70,0.00,,SKC,0.00,VWS V14.00,2013-12-08 18:31:00,
2013-12-08 11:37:00,18.7,10.2,30.11,SSW,205,2.0,5.0,69,0.00,,SKC,0.00,VWS V14.00,2013-12-08 18:37:00,
2013-12-08 11:42:00,18.7,9.6,30.11,South,180,4.0,7.0,67,0.00,,SKC,0.00,VWS V14.00,2013-12-08 18:42:00,
2013-12-08 11:47:00,18.6,8.8,30.11,SSW,198,4.0,8.0,65,0.00,,SKC,0.00,VWS V14.00,2013-12-08 18:47:00,
2013-12-08 11:52:00,18.8,9.3,30.11,SSW,195,3.0,8.0,66,0.00,,SKC,0.00,VWS V14.00,2013-12-08 18:52:00,
2013-12-08 11:58:00,18.8,9.3,30.12,South,184,4.0,8.0,66,0.00,,SKC,0.00,VWS V14.00,2013-12-08 18:58:00,
2013-12-08 12:03:00,18.8,9.3,30.12,SSW,200,7.0,7.0,66,0.00,,SKC,0.00,VWS V14.00,2013-12-08 19:03:00,
2013-12-08 12:08:00,18.8,8.6,30.11,SSW,192,3.0,7.0,64,0.00,,SKC,0.00,VWS V14.00,2013-12-08 19:08:00,
2013-12-08 12:14:00,18.9,9.4,30.11,WSW,239,4.0,7.0,66,0.00,,SKC,0.00,VWS V14.00,2013-12-08 19:14:00,
2013-12-08 12:19:00,18.9,8.4,30.11,North,355,5.0,7.0,63,0.00,,SKC,0.00,VWS V14.00,2013-12-08 19:19:00,
2013-12-08 12:24:00,18.7,9.2,30.11,WSW,248,0.0,7.0,66,0.00,,SKC,0.00,VWS V14.00,2013-12-08 19:24:00,
2013-12-08 12:29:00,18.5,9.7,30.11,SSW,197,1.0,7.0,68,0.00,,SKC,0.00,VWS V14.00,2013-12-08 19:29:00,
2013-12-08 12:34:00,18.6,10.1,30.11,SSW,197,0.0,0.0,69,0.00,,SKC,0.00,VWS V14.00,2013-12-08 19:34:00,
2013-12-08 12:40:00,18.9,9.8,30.11,SSW,197,2.0,3.0,67,0.00,,SKC,0.00,VWS V14.00,2013-12-08 19:40:00,
2013-12-08 12:45:00,19.1,10.3,30.10,SSW,198,0.0,3.0,68,0.00,,SKC,0.00,VWS V14.00,2013-12-08 19:45:00,
2013-12-08 13:02:00,18.8,10.3,30.10,South,181,1.0,5.0,69,0.00,,SKC,0.00,VWS V14.00,2013-12-08 20:02:00,
2013-12-08 13:07:00,18.6,10.8,30.10,South,181,0.0,2.0,71,0.00,,SKC,0.00,VWS V14.00,2013-12-08 20:07:00,
2013-12-08 13:13:00,18.7,11.2,30.10,SSE,158,2.0,5.0,72,0.00,,SKC,0.00,VWS V14.00,2013-12-08 20:13:00,
2013-12-08 13:18:00,18.8,11.3,30.10,SW,215,3.0,6.0,72,0.00,,SKC,0.00,VWS V14.00,2013-12-08 20:18:00,
2013-12-08 13:23:00,18.7,10.9,30.10,South,173,0.0,6.0,71,0.00,,SKC,0.00,VWS V14.00,2013-12-08 20:23:00,
2013-12-08 13:28:00,18.9,11.7,30.10,South,173,0.0,6.0,73,0.00,,SKC,0.00,VWS V14.00,2013-12-08 20:28:00,
2013-12-08 13:34:00,19.3,11.4,30.10,SSW,208,1.0,3.0,71,0.00,,SKC,0.00,VWS V14.00,2013-12-08 20:34:00,
2013-12-08 13:39:00,19.4,11.9,30.10,SSW,208,0.0,3.0,72,0.00,,SKC,0.00,VWS V14.00,2013-12-08 20:39:00,
2013-12-08 13:44:00,19.6,11.4,30.10,SSW,208,2.0,3.0,70,0.00,,SKC,0.00,VWS V14.00,2013-12-08 20:44:00,
2013-12-08 13:49:00,19.6,10.8,30.10,South,171,2.0,6.0,68,0.00,,SKC,0.00,VWS V14.00,2013-12-08 20:49:00,
2013-12-08 13:54:00,19.7,10.9,30.10,South,188,2.0,6.0,68,0.00,,SKC,0.00,VWS V14.00,2013-12-08 20:54:00,
2013-12-08 14:00:00,19.6,11.4,30.10,South,190,0.0,6.0,70,0.00,,SKC,0.00,VWS V14.00,2013-12-08 21:00:00,
2013-12-08 14:05:00,19.6,11.4,30.10,South,176,4.0,5.0,70,0.00,,SKC,0.00,VWS V14.00,2013-12-08 21:05:00,
2013-12-08 14:10:00,19.4,11.6,30.10,South,181,3.0,6.0,71,0.00,,SKC,0.00,VWS V14.00,2013-12-08 21:10:00,
2013-12-08 14:15:00,19.1,11.6,30.10,South,181,1.0,6.0,72,0.00,,SKC,0.00,VWS V14.00,2013-12-08 21:15:00,
2013-12-08 14:21:00,19.0,11.8,30.10,SW,229,5.0,6.0,73,0.00,,SKC,0.00,VWS V14.00,2013-12-08 21:21:00,
2013-12-08 14:26:00,18.9,12.3,30.10,SSW,207,1.0,7.0,75,0.00,,SKC,0.00,VWS V14.00,2013-12-08 21:26:00,
2013-12-08 14:31:00,19.0,12.1,30.10,South,173,4.0,7.0,74,0.00,,SKC,0.00,VWS V14.00,2013-12-08 21:31:00,
2013-12-08 14:36:00,19.1,11.6,30.10,SE,134,2.0,8.0,72,0.00,,SKC,0.00,VWS V14.00,2013-12-08 21:36:00,
2013-12-08 14:42:00,19.2,11.4,30.10,South,178,5.0,8.0,71,0.00,,SKC,0.00,VWS V14.00,2013-12-08 21:42:00,
2013-12-08 14:47:00,19.2,10.7,30.10,SSE,152,4.0,8.0,69,0.00,,SKC,0.00,VWS V14.00,2013-12-08 21:47:00,
2013-12-08 14:52:00,19.1,10.6,30.11,South,175,0.0,10.0,69,0.00,,SKC,0.00,VWS V14.00,2013-12-08 21:52:00,
2013-12-08 14:57:00,19.2,11.0,30.10,South,174,4.0,10.0,70,0.00,,SKC,0.00,VWS V14.00,2013-12-08 21:57:00,
2013-12-08 15:02:00,19.8,11.3,30.10,ESE,113,0.0,2.0,69,0.00,,SKC,0.00,VWS V14.00,2013-12-08 22:02:00,
2013-12-08 15:08:00,20.5,11.6,30.10,East,80,2.0,5.0,68,0.00,,SKC,0.00,VWS V14.00,2013-12-08 22:08:00,
2013-12-08 15:13:00,21.1,11.2,30.10,SSE,159,4.0,11.0,65,0.00,,SKC,0.00,VWS V14.00,2013-12-08 22:13:00,
2013-12-08 15:18:00,21.0,10.4,30.10,South,188,3.0,11.0,63,0.00,,SKC,0.00,VWS V14.00,2013-12-08 22:18:00,
2013-12-08 15:23:00,20.9,8.8,30.10,SSW,207,4.0,11.0,59,0.00,,SKC,0.00,VWS V14.00,2013-12-08 22:23:00,
2013-12-08 15:28:00,20.7,9.0,30.11,SW,222,2.0,11.0,60,0.00,,SKC,0.00,VWS V14.00,2013-12-08 22:28:00,
2013-12-08 15:34:00,20.8,9.1,30.11,South,182,0.0,6.0,60,0.00,,SKC,0.00,VWS V14.00,2013-12-08 22:34:00,
2013-12-08 15:39:00,20.9,9.6,30.11,SW,232,1.0,6.0,61,0.00,,SKC,0.00,VWS V14.00,2013-12-08 22:39:00,
2013-12-08 15:44:00,20.9,8.5,30.12,SSW,212,1.0,6.0,58,0.00,,SKC,0.00,VWS V14.00,2013-12-08 22:44:00,
2013-12-08 15:49:00,20.6,8.2,30.12,WNW,288,1.0,7.0,58,0.00,,SKC,0.00,VWS V14.00,2013-12-08 22:49:00,
2013-12-08 15:55:00,20.4,8.0,30.12,South,187,2.0,7.0,58,0.00,,SKC,0.00,VWS V14.00,2013-12-08 22:55:00,
2013-12-08 16:00:00,20.0,8.0,30.12,SSW,197,4.0,8.0,59,0.00,,SKC,0.00,VWS V14.00,2013-12-08 23:00:00,
2013-12-08 16:05:00,19.5,7.5,30.12,South,178,2.0,6.0,59,0.00,,SKC,0.00,VWS V14.00,2013-12-08 23:05:00,
2013-12-08 16:10:00,19.1,7.9,30.12,South,178,1.0,6.0,61,0.00,,SKC,0.00,VWS V14.00,2013-12-08 23:10:00,
2013-12-08 16:15:00,18.8,7.2,30.12,South,178,2.0,6.0,60,0.00,,SKC,0.00,VWS V14.00,2013-12-08 23:15:00,
2013-12-08 16:21:00,18.5,8.0,30.12,South,178,0.0,6.0,63,0.00,,SKC,0.00,VWS V14.00,2013-12-08 23:21:00,
2013-12-08 16:26:00,18.1,11.5,30.13,South,178,0.0,6.0,75,0.00,,SKC,0.00,VWS V14.00,2013-12-08 23:26:00,
2013-12-08 16:31:00,17.6,10.1,30.13,SSE,153,0.0,6.0,72,0.00,,SKC,0.00,VWS V14.00,2013-12-08 23:31:00,
2013-12-08 16:36:00,16.7,9.6,30.13,SSE,153,0.0,0.0,73,0.00,,SKC,0.00,VWS V14.00,2013-12-08 23:36:00,
2013-12-08 16:42:00,15.7,8.9,30.14,SSE,153,2.0,4.0,74,0.00,,SKC,0.00,VWS V14.00,2013-12-08 23:42:00,
2013-12-08 16:47:00,14.7,8.5,30.14,East,97,0.0,4.0,76,0.00,,SKC,0.00,VWS V14.00,2013-12-08 23:47:00,
2013-12-08 16:52:00,14.3,7.8,30.14,East,97,0.0,4.0,75,0.00,,SKC,0.00,VWS V14.00,2013-12-08 23:52:00,
2013-12-08 16:57:00,14.2,7.4,30.15,WSW,252,0.0,4.0,74,0.00,,SKC,0.00,VWS V14.00,2013-12-08 23:57:00,
2013-12-08 17:03:00,14.0,8.1,30.15,SE,139,0.0,2.0,77,0.00,,SKC,0.00,VWS V14.00,2013-12-09 00:03:00,
2013-12-08 17:08:00,13.9,7.2,30.15,SE,126,0.0,2.0,74,0.00,,SKC,0.00,VWS V14.00,2013-12-09 00:08:00,
2013-12-08 17:13:00,13.1,7.0,30.15,SE,126,0.0,2.0,76,0.00,,SKC,0.00,VWS V14.00,2013-12-09 00:13:00,
2013-12-08 17:18:00,12.5,7.0,30.15,SE,126,0.0,2.0,78,0.00,,SKC,0.00,VWS V14.00,2013-12-09 00:18:00,
2013-12-08 17:24:00,11.9,6.4,30.15,NE,42,3.0,5.0,78,0.00,,SKC,0.00,VWS V14.00,2013-12-09 00:24:00,
2013-12-08 17:29:00,11.6,6.4,30.16,NNE,30,0.0,6.0,79,0.00,,SKC,0.00,VWS V14.00,2013-12-09 00:29:00,
2013-12-08 17:34:00,11.6,6.4,30.16,NE,34,1.0,1.0,79,0.00,,SKC,0.00,VWS V14.00,2013-12-09 00:34:00,
2013-12-08 17:39:00,11.2,6.2,30.16,ENE,73,0.0,3.0,80,0.00,,SKC,0.00,VWS V14.00,2013-12-09 00:39:00,
2013-12-08 17:44:00,10.8,5.9,30.17,ENE,73,1.0,3.0,80,0.00,,SKC,0.00,VWS V14.00,2013-12-09 00:44:00,
2013-12-08 17:50:00,10.5,5.6,30.17,ENE,73,0.0,3.0,80,0.00,,SKC,0.00,VWS V14.00,2013-12-09 00:50:00,
2013-12-08 17:55:00,10.1,5.4,30.17,ENE,73,0.0,3.0,81,0.00,,SKC,0.00,VWS V14.00,2013-12-09 00:55:00,
2013-12-08 18:00:00,9.5,4.6,30.18,ENE,73,0.0,3.0,80,0.00,,SKC,0.00,VWS V14.00,2013-12-09 01:00:00,
2013-12-08 18:05:00,9.1,4.5,30.18,ENE,73,0.0,1.0,81,0.00,,SKC,0.00,VWS V14.00,2013-12-09 01:05:00,
2013-12-08 18:11:00,8.8,4.4,30.18,ENE,73,0.0,1.0,82,0.00,,SKC,0.00,VWS V14.00,2013-12-09 01:11:00,
2013-12-08 18:16:00,8.7,4.6,30.19,ENE,73,0.0,1.0,83,0.00,,SKC,0.00,VWS V14.00,2013-12-09 01:16:00,
2013-12-08 18:21:00,8.4,4.3,30.19,ENE,73,0.0,1.0,83,0.00,,SKC,0.00,VWS V14.00,2013-12-09 01:21:00,
2013-12-08 18:26:00,8.1,4.0,30.19,ENE,73,0.0,2.0,83,0.00,,SKC,0.00,VWS V14.00,2013-12-09 01:26:00,
2013-12-08 18:31:00,8.0,4.2,30.19,ENE,73,0.0,2.0,84,0.00,,SKC,0.00,VWS V14.00,2013-12-09 01:31:00,
2013-12-08 18:37:00,7.9,4.1,30.19,ENE,73,0.0,1.0,84,0.00,,SKC,0.00,VWS V14.00,2013-12-09 01:37:00,
2013-12-08 18:42:00,7.8,4.0,30.19,ENE,73,0.0,1.0,84,0.00,,SKC,0.00,VWS V14.00,2013-12-09 01:42:00,
2013-12-08 18:47:00,7.6,3.8,30.20,ENE,73,0.0,2.0,84,0.00,,SKC,0.00,VWS V14.00,2013-12-09 01:47:00,
2013-12-08 18:52:00,7.4,3.8,30.20,ENE,73,0.0,2.0,85,0.00,,SKC,0.00,VWS V14.00,2013-12-09 01:52:00,
2013-12-08 18:58:00,7.4,3.8,30.20,ENE,73,0.0,2.0,85,0.00,,SKC,0.00,VWS V14.00,2013-12-09 01:58:00,
2013-12-08 19:03:00,7.3,3.8,30.21,ENE,73,0.0,0.0,85,0.00,,SKC,0.00,VWS V14.00,2013-12-09 02:03:00,
2013-12-08 19:08:00,7.0,3.5,30.21,ENE,73,0.0,0.0,85,0.00,,SKC,0.00,VWS V14.00,2013-12-09 02:08:00,
2013-12-08 19:13:00,6.7,2.9,30.22,ENE,73,0.0,0.0,84,0.00,,SKC,0.00,VWS V14.00,2013-12-09 02:13:00,
2013-12-08 19:19:00,6.3,2.5,30.22,ENE,73,0.0,2.0,84,0.00,,SKC,0.00,VWS V14.00,2013-12-09 02:19:00,
2013-12-08 19:24:00,6.0,2.2,30.22,ENE,73,0.0,2.0,84,0.00,,SKC,0.00,VWS V14.00,2013-12-09 02:24:00,
2013-12-08 19:29:00,5.8,2.3,30.21,ENE,73,0.0,2.0,85,0.00,,SKC,0.00,VWS V14.00,2013-12-09 02:29:00,
2013-12-08 19:34:00,5.8,2.5,30.22,ENE,73,0.0,0.0,86,0.00,,SKC,0.00,VWS V14.00,2013-12-09 02:34:00,
2013-12-08 19:40:00,5.7,2.4,30.22,ENE,73,0.0,1.0,86,0.00,,SKC,0.00,VWS V14.00,2013-12-09 02:40:00,
2013-12-08 19:45:00,5.6,2.1,30.22,ENE,73,0.0,1.0,85,0.00,,SKC,0.00,VWS V14.00,2013-12-09 02:45:00,
2013-12-08 19:50:00,5.5,2.2,30.22,ENE,73,0.0,1.0,86,0.00,,SKC,0.00,VWS V14.00,2013-12-09 02:50:00,
2013-12-08 19:55:00,5.5,2.2,30.22,ENE,73,0.0,1.0,86,0.00,,SKC,0.00,VWS V14.00,2013-12-09 02:55:00,
2013-12-08 20:00:00,5.3,1.8,30.22,ENE,73,1.0,1.0,85,0.00,,SKC,0.00,VWS V14.00,2013-12-09 03:00:00,
2013-12-08 20:06:00,5.1,1.6,30.22,ENE,73,0.0,0.0,85,0.00,,SKC,0.00,VWS V14.00,2013-12-09 03:06:00,
2013-12-08 20:11:00,5.0,1.7,30.22,ENE,73,0.0,1.0,86,0.00,,SKC,0.00,VWS V14.00,2013-12-09 03:11:00,
2013-12-08 20:16:00,5.1,1.8,30.22,ENE,73,0.0,1.0,86,0.00,,SKC,0.00,VWS V14.00,2013-12-09 03:16:00,
2013-12-08 20:21:00,5.5,2.7,30.23,ENE,73,0.0,1.0,88,0.00,,SKC,0.00,VWS V14.00,2013-12-09 03:21:00,
2013-12-08 20:27:00,5.9,3.1,30.23,ENE,73,0.0,1.0,88,0.00,,SKC,0.00,VWS V14.00,2013-12-09 03:27:00,
2013-12-08 20:32:00,6.0,2.7,30.23,ENE,73,0.0,1.0,86,0.00,,SKC,0.00,VWS V14.00,2013-12-09 03:32:00,
2013-12-08 20:37:00,5.8,2.3,30.23,ENE,73,0.0,0.0,85,0.00,,SKC,0.00,VWS V14.00,2013-12-09 03:37:00,
2013-12-08 20:42:00,5.5,2.0,30.23,ENE,73,0.0,0.0,85,0.00,,SKC,0.00,VWS V14.00,2013-12-09 03:42:00,
2013-12-08 20:48:00,5.3,1.8,30.23,ENE,73,0.0,0.0,85,0.00,,SKC,0.00,VWS V14.00,2013-12-09 03:48:00,
2013-12-08 20:53:00,5.2,1.9,30.23,ENE,73,0.0,1.0,86,0.00,,SKC,0.00,VWS V14.00,2013-12-09 03:53:00,
2013-12-08 20:58:00,5.0,1.5,30.23,ENE,73,0.0,1.0,85,0.00,,SKC,0.00,VWS V14.00,2013-12-09 03:58:00,
2013-12-08 21:03:00,4.6,1.1,30.23,ENE,73,0.0,0.0,85,0.00,,SKC,0.00,VWS V14.00,2013-12-09 04:03:00,
2013-12-08 21:09:00,4.6,1.3,30.23,ENE,73,0.0,0.0,86,0.00,,SKC,0.00,VWS V14.00,2013-12-09 04:09:00,
2013-12-08 21:14:00,4.6,1.3,30.23,ENE,73,0.0,2.0,86,0.00,,SKC,0.00,VWS V14.00,2013-12-09 04:14:00,
2013-12-08 21:19:00,4.4,0.9,30.23,ENE,73,0.0,2.0,85,0.00,,SKC,0.00,VWS V14.00,2013-12-09 04:19:00,
2013-12-08 21:24:00,4.5,1.5,30.24,ENE,73,0.0,2.0,87,0.00,,SKC,0.00,VWS V14.00,2013-12-09 04:24:00,
2013-12-08 21:30:00,4.3,0.8,30.24,ENE,73,0.0,2.0,85,0.00,,SKC,0.00,VWS V14.00,2013-12-09 04:30:00,
2013-12-08 21:35:00,4.5,1.7,30.24,ENE,73,0.0,0.0,88,0.00,,SKC,0.00,VWS V14.00,2013-12-09 04:35:00,
2013-12-08 21:40:00,4.6,1.6,30.24,ENE,73,0.0,2.0,87,0.00,,SKC,0.00,VWS V14.00,2013-12-09 04:40:00,
2013-12-08 21:45:00,4.5,1.2,30.24,ENE,73,0.0,2.0,86,0.00,,SKC,0.00,VWS V14.00,2013-12-09 04:45:00,
2013-12-08 21:51:00,4.6,1.6,30.24,ENE,73,0.0,2.0,87,0.00,,SKC,0.00,VWS V14.00,2013-12-09 04:51:00,
2013-12-08 21:56:00,4.7,1.7,30.25,ENE,73,0.0,2.0,87,0.00,,SKC,0.00,VWS V14.00,2013-12-09 04:56:00,
2013-12-08 22:01:00,4.5,1.0,30.25,ENE,73,1.0,2.0,85,0.00,,SKC,0.00,VWS V14.00,2013-12-09 05:01:00,
2013-12-08 22:02:00,4.4,0.9,30.25,ENE,73,0.0,0.0,85,0.00,,SKC,0.00,VWS V14.00,2013-12-09 05:02:00,
2013-12-08 22:03:00,4.3,0.8,30.25,ENE,73,0.0,0.0,85,0.00,,SKC,0.00,VWS V14.00,2013-12-09 05:03:00,
2013-12-08 22:04:00,4.3,0.8,30.25,ENE,73,0.0,0.0,85,0.00,,SKC,0.00,VWS V14.00,2013-12-09 05:04:00,
2013-12-08 22:05:00,4.2,0.7,30.25,ENE,73,0.0,0.0,85,0.00,,SKC,0.00,VWS V14.00,2013-12-09 05:05:00,
2013-12-08 22:10:00,4.1,0.9,30.25,ENE,73,0.0,0.0,86,0.00,,SKC,0.00,VWS V14.00,2013-12-09 05:10:00,
2013-12-08 22:16:00,4.0,0.8,30.26,ENE,73,0.0,0.0,86,0.00,,SKC,0.00,VWS V14.00,2013-12-09 05:16:00,
2013-12-08 22:21:00,4.2,1.2,30.27,ENE,73,0.0,1.0,87,0.00,,SKC,0.00,VWS V14.00,2013-12-09 05:21:00,
2013-12-08 22:26:00,4.4,1.4,30.27,ENE,73,0.0,1.0,87,0.00,,SKC,0.00,VWS V14.00,2013-12-09 05:26:00,
2013-12-08 22:32:00,4.4,1.1,30.27,ENE,73,0.0,1.0,86,0.00,,SKC,0.00,VWS V14.00,2013-12-09 05:32:00,
2013-12-08 22:37:00,4.6,1.6,30.27,ENE,73,0.0,2.0,87,0.00,,SKC,0.00,VWS V14.00,2013-12-09 05:37:00,
2013-12-08 22:42:00,4.8,1.8,30.27,ENE,73,0.0,2.0,87,0.00,,SKC,0.00,VWS V14.00,2013-12-09 05:42:00,
2013-12-08 22:47:00,5.1,2.3,30.28,ENE,73,0.0,2.0,88,0.00,,SKC,0.00,VWS V14.00,2013-12-09 05:47:00,
2013-12-08 22:52:00,5.0,1.7,30.28,ENE,73,0.0,2.0,86,0.00,,SKC,0.00,VWS V14.00,2013-12-09 05:52:00,
2013-12-08 22:58:00,4.9,1.4,30.28,ENE,73,0.0,2.0,85,0.00,,SKC,0.00,VWS V14.00,2013-12-09 05:58:00,
2013-12-08 23:03:00,4.9,1.6,30.28,ENE,73,0.0,0.0,86,0.00,,SKC,0.00,VWS V14.00,2013-12-09 06:03:00,
2013-12-08 23:08:00,5.1,2.1,30.28,ENE,73,0.0,0.0,87,0.00,,SKC,0.00,VWS V14.00,2013-12-09 06:08:00,
2013-12-08 23:13:00,5.4,2.6,30.28,ENE,73,0.0,0.0,88,0.00,,SKC,0.00,VWS V14.00,2013-12-09 06:13:00,
2013-12-08 23:19:00,5.6,2.8,30.29,ENE,73,0.0,0.0,88,0.00,,SKC,0.00,VWS V14.00,2013-12-09 06:19:00,
2013-12-08 23:24:00,5.8,2.8,30.29,ENE,73,0.0,0.0,87,0.00,,SKC,0.00,VWS V14.00,2013-12-09 06:24:00,
2013-12-08 23:29:00,5.9,2.9,30.30,ENE,73,0.0,0.0,87,0.00,,SKC,0.00,VWS V14.00,2013-12-09 06:29:00,
2013-12-08 23:34:00,5.9,2.9,30.30,ENE,73,0.0,0.0,87,0.00,,SKC,0.00,VWS V14.00,2013-12-09 06:34:00,
2013-12-08 23:40:00,6.0,3.0,30.30,ENE,73,0.0,1.0,87,0.00,,SKC,0.00,VWS V14.00,2013-12-09 06:40:00,
2013-12-08 23:45:00,6.2,3.2,30.30,ENE,73,0.0,1.0,87,0.00,,SKC,0.00,VWS V14.00,2013-12-09 06:45:00,
2013-12-08 23:50:00,6.3,3.3,30.30,ENE,73,0.0,1.0,87,0.00,,SKC,0.00,VWS V14.00,2013-12-09 06:50:00,
2013-12-08 23:55:00,6.4,3.4,30.30,ENE,73,0.0,1.0,87,0.00,,SKC,0.00,VWS V14.00,2013-12-09 06:55:00,